• Join FlightAware (Why Join?)
  • Login
  • US Flag GB Flag 
04:11 EDT


 

Airport Tracker/Info


-or-


 

Live Flight TrackerFlight Track Log ✈ ASQ6041 ✈ 30-Apr-2013 ✈ KBHM - KORD

Flight Track Log - Related Links

Times and Time Zones

All times are in EDT time to prevent confusion due to time zone crossing. See the ASQ6041 flight status page for this flight to view local times or setup timezone preferences in your user account.

Time Position Orientation Groundspeed Altitude Reporting Facility
EDT Latitude Longitude Course Direction KTS MPH feet Rate Location/Type
06:58 33.5661 -86.7511 46° Northeast 156 180 1,200  Level Atlanta Center
07:00 33.6111 -86.6953 46° Northeast 190 219 3,500 1,860 Climbing Atlanta Center
07:01 33.6603 -86.6369 45° Northeast 209 241 5,300 2,220 Climbing Atlanta Center
07:02 33.7139 -86.5761 43° Northeast 244 281 8,000 2,520 Climbing Atlanta Center
07:03 33.7758 -86.5103 41° Northeast 267 307 10,400 2,460 Climbing Atlanta Center
07:04 33.8333 -86.4444 44° Northeast 280 322 13,000 1,800 Climbing Atlanta Center
07:05 33.8953 -86.3764 42° Northeast 280 322 14,000 900 Climbing Atlanta Center
07:06 33.9636 -86.2956 44° Northeast 307 353 14,900 1,140 Climbing Atlanta Center
07:07 34.0381 -86.2097 44° Northeast 337 388 16,300 1,380 Climbing Atlanta Center
07:08 34.1169 -86.1239 42° Northeast 356 410 17,700 1,200 Climbing Atlanta Center
07:09 34.1914 -86.0403 43° Northeast 363 418 18,800 1,140 Climbing Atlanta Center
07:10 34.2719 -85.9467 44° Northeast 376 433 20,000 1,560 Climbing Atlanta Center
07:12 34.4292 -85.7714 43° Northeast 378 435 23,500 1,800 Climbing Atlanta Center
07:13 34.5033 -85.6847 44° Northeast 378 435 25,500 1,500 Climbing Atlanta Center
07:14 34.5794 -85.5981 43° Northeast 373 429 26,600 840 Climbing Atlanta Center
07:15 34.6558 -85.5083 44° Northeast 373 429 27,200 840 Climbing Atlanta Center
07:16 34.7361 -85.4164 43° Northeast 379 436 28,300 1,140 Climbing Atlanta Center
07:17 34.8164 -85.3242 43° Northeast 384 442 29,500 1,140 Climbing Atlanta Center
07:18 34.8967 -85.2317 43° Northeast 384 442 30,600 1,140 Climbing Atlanta Center
07:19 34.9831 -85.1542 36° Northeast 384 442 31,800 1,080 Climbing Atlanta Center
07:20 35.0750 -85.1250 15° North 377 434 32,800 1,140 Climbing Atlanta Center
07:21 35.1858 -85.0958 12° North 375 432 34,100 1,080 Climbing Atlanta Center
07:22 35.2925 -85.0719 10° North 382 440 35,000 420 Climbing Atlanta Center
07:23 35.4056 -85.0428 12° North 395 455 35,000  Level Atlanta Center
07:24 35.5225 -85.0136 11° North 413 475 35,000  Level Atlanta Center
07:25 35.6375 -84.9842 12° North 413 475 35,000  Level Atlanta Center
07:26 35.7503 -84.9547 12° North 413 475 35,000  Level Atlanta Center
07:27 35.8819 -84.9203 12° North 413 475 35,000  Level Atlanta Center
07:28 35.9989 -84.8933 11° North 418 481 35,000  Level Atlanta Center
07:29 36.1736 -84.8450 13° North 420 483 35,000  Level Indianapolis Center
07:30 36.2897 -84.8142 12° North 426 490 35,000  Level Indianapolis Center
07:31 36.4072 -84.7836 12° North 429 494 35,000  Level Indianapolis Center
07:32 36.5231 -84.7494 13° North 429 494 35,000  Level Indianapolis Center
07:33 36.6619 -84.7089 13° North 426 490 35,000  Level Indianapolis Center
07:34 36.7767 -84.6753 13° North 424 488 35,000  Level Indianapolis Center
07:35 36.8917 -84.6408 13° North 422 486 35,000  Level Indianapolis Center
07:36 37.0064 -84.6064 13° North 423 487 35,000  Level Indianapolis Center
07:37 37.1233 -84.5936 North 430 495 35,000  Level Indianapolis Center
07:38 37.2322 -84.6272 346° North 407 468 35,000  Level Indianapolis Center
07:40 37.3453 -84.6619 346° North 413 475 35,000  Level Indianapolis Center
07:41 37.4578 -84.6978 346° North 414 476 35,000  Level Indianapolis Center
07:42 37.5881 -84.7367 347° North 412 474 35,000  Level Indianapolis Center
07:43 37.6989 -84.7722 346° North 410 472 35,000  Level Indianapolis Center
07:44 37.8106 -84.8069 346° North 412 474 35,000  Level Indianapolis Center
07:45 37.9208 -84.8431 346° North 409 471 35,000  Level Indianapolis Center
07:46 38.0353 -84.8767 347° North 420 483 35,000  Level Indianapolis Center
07:47 38.1528 -84.9133 346° North 433 498 35,000  Level Indianapolis Center
07:48 38.2700 -84.9497 346° North 433 498 35,000  Level Indianapolis Center
07:49 38.4033 -84.9931 346° North 424 488 35,000  Level Indianapolis Center
07:50 38.5214 -85.0294 346° North 434 499 35,000  Level Indianapolis Center
07:51 38.6375 -85.0653 346° North 431 496 35,000  Level Indianapolis Center
07:52 38.7478 -85.1044 345° North 423 487 35,000 -660 Level Indianapolis Center
07:53 38.8619 -85.1392 347° North 419 482 33,700 -1,380 Descending Indianapolis Center
07:54 38.9778 -85.1781 345° North 425 489 32,200 -1,500 Descending Indianapolis Center
07:55 39.0942 -85.2156 346° North 428 493 30,700 -1,620 Descending Indianapolis Center
07:56 39.2319 -85.2608 346° North 433 498 28,900 -1,320 Descending Indianapolis Center
07:57 39.3522 -85.2997 346° North 442 509 28,000 -480 Descending Indianapolis Center
07:58 39.4742 -85.3400 346° North 448 516 28,000  Level Indianapolis Center
07:59 39.5939 -85.3786 346° North 445 512 28,000 -240 Level Indianapolis Center
08:00 39.7156 -85.4194 346° North 435 501 27,600 -600 Descending Indianapolis Center
08:01 39.8350 -85.4336 355° North 437 503 26,800 -840 Descending Indianapolis Center
08:02 39.9531 -85.4194 North 424 488 26,000 -420 Descending Indianapolis Center
08:03 40.0597 -85.4089 North 394 453 26,000  Level Indianapolis Center
08:04 40.1683 -85.4000 North 387 445 26,000 -300 Level Indianapolis Center
08:05 40.2642 -85.4642 333° Northwest 387 445 25,400 -840 Descending Indianapolis Center
08:06 40.3608 -85.5531 325° Northwest 412 474 24,300 -720 Descending Indianapolis Center
08:07 40.4583 -85.6747 317° Northwest 410 472 24,000 -540 Descending Indianapolis Center
08:08 40.5400 -85.8083 309° West 411 473 23,200 -480 Descending Chicago Center
08:09 40.6103 -85.9233 309° West 407 468 23,000 -120 Descending Chicago Center
08:10 40.6808 -86.0397 309° West 406 467 23,000  Level Chicago Center
08:12 40.7506 -86.1572 308° West 406 467 23,000 -420 Level Chicago Center
08:13 40.8219 -86.2747 309° West 409 471 22,200 -960 Descending Chicago Center
08:14 40.8919 -86.3914 308° West 405 466 21,100 -1,020 Descending Chicago Center
08:15 40.9592 -86.5064 308° West 396 456 20,100 -1,080 Descending Chicago Center
08:16 41.0383 -86.6383 309° West 382 440 18,900 -1,020 Descending Chicago Center
08:17 41.1003 -86.7419 308° West 382 440 18,000 -1,140 Descending Chicago Center
08:18 41.1639 -86.8517 308° West 380 437 16,600 -1,500 Descending Chicago Center
08:19 41.2267 -86.9567 309° West 367 422 14,900 -2,100 Descending Chicago Center
08:20 41.2989 -87.0819 308° West 359 413 12,300 -1,920 Descending Chicago Center
08:21 41.3578 -87.1814 308° West 348 400 11,000 -720 Descending Chicago Center
08:22 41.4167 -87.2667 313° West 359 413 11,000 -240 Level Chicago TRACON
08:23 41.5000 -87.3500 323° Northwest 353 406 10,600 -540 Descending Chicago TRACON
08:24 41.5667 -87.4333 317° Northwest 345 397 10,000 -480 Descending Chicago TRACON
08:24 41.5767 -87.4394 335° Northwest 345 397 10,000  Level Chicago Center
08:25 41.6642 -87.5356 321° Northwest 343 395 10,000 -480 Level Chicago Center
08:26 41.7239 -87.6039 320° Northwest 287 330 9,100 -1,200 Descending Chicago Center
08:27 41.7667 -87.6500 321° Northwest 278 320 8,100 -1,260 Descending Chicago TRACON
08:28 41.8333 -87.7000 331° Northwest 282 325 7,100 -600 Descending Chicago TRACON
08:29 41.9000 -87.7000 360° North 290 334 7,000 -120 Descending Chicago TRACON
08:30 41.9833 -87.6833 North 256 295 6,900 -900 Descending Chicago TRACON
08:31 42.0333 -87.6500 26° Northeast 252 290 5,300 -1,440 Descending Chicago TRACON
08:32 42.0833 -87.6833 334° Northwest 177 204 4,000 -1,080 Descending Chicago TRACON
08:33 42.0833 -87.7333 270° West 150 173 3,100 -720 Descending Chicago TRACON
08:34 42.0500 -87.7667 217° Southwest 134 154 2,700 -420 Descending Chicago TRACON
08:35 42.0333 -87.8000 236° Southwest 119 137 2,300 -480 Descending Chicago TRACON
08:36 42.0167 -87.8333 236° Southwest 99 114 1,800 -600 Descending Chicago TRACON
08:37 41.9833 -87.8500 200° South 116 133 1,200 -600 Descending Chicago TRACON
08:39 41.9667 -87.9000 285° West  Level FlightAware Approximate